This is the latest recevied weather packets stored in our database for station/object WI0K. If no packets are shown the sender has not sent any weather packets the latest 10 day(s).
| Time | Temp. | Humidity | Pressure | Rain* | Wind** | Luminosity | Snow |
|---|---|---|---|---|---|---|---|
| 1788470865 | 32.22° C | 20% | 1015.2 hPa | 0 mm | - | 411 W/m² | - |
| 1788470565 | 32.22° C | 20% | 1015.3 hPa | 0 mm | - | 747 W/m² | - |
| 1788470264 | 32.22° C | 21% | 1015.3 hPa | 0 mm | - | 767 W/m² | - |
| 1788469963 | 32.22° C | 20% | 1015.5 hPa | 0 mm | - | 776 W/m² | - |
| 1788469662 | 31.67° C | 21% | 1015.6 hPa | 0 mm | - | 746 W/m² | - |
| 1788469361 | 31.11° C | 24% | 1015.6 hPa | 0 mm | - | 763 W/m² | - |
| 1788469060 | 31.11° C | 22% | 1015.7 hPa | 0 mm | - | 768 W/m² | - |
| 1788468760 | 31.67° C | 25% | 829.2 hPa | 0 mm | - | 777 W/m² | - |
| 1788468459 | 31.11° C | 21% | 1015.7 hPa | 0 mm | - | 790 W/m² | - |
| 1788468158 | 31.11° C | 21% | 1015.8 hPa | 0 mm | - | 804 W/m² | - |
| 1788467857 | 31.11° C | 21% | 1016.1 hPa | 0 mm | - | 815 W/m² | - |
| 1788467556 | 31.67° C | 21% | 1016.2 hPa | 0 mm | - | 820 W/m² | - |
| 1788467255 | 31.11° C | 21% | 1016.2 hPa | 0 mm | - | 833 W/m² | - |
| 1788466954 | 31.67° C | 21% | 1016.2 hPa | 0 mm | - | 840 W/m² | - |
| 1788466654 | 31.67° C | 21% | 1016.2 hPa | 0 mm | - | 847 W/m² | - |
| 1788466353 | 31.67° C | 22% | 1016.2 hPa | 0 mm | - | 856 W/m² | - |
| 1788466052 | 31.67° C | 22% | 1016.2 hPa | 0 mm | - | 863 W/m² | - |
| 1788465751 | 31.67° C | 23% | 1016.3 hPa | 0 mm | - | 872 W/m² | - |
| 1788465450 | 31.11° C | 24% | 1016.4 hPa | 0 mm | - | 878 W/m² | - |
| 1788465150 | 31.11° C | 23% | 1016.5 hPa | 0 mm | - | 883 W/m² | - |
| 1788464849 | 30.56° C | 22% | 1016.5 hPa | 0 mm | - | 895 W/m² | - |
| 1788464548 | 30.56° C | 21% | 1016.6 hPa | 0 mm | - | 902 W/m² | - |
| 1788464246 | 30° C | 24% | 1016.6 hPa | 0 mm | - | 905 W/m² | - |
| 1788463946 | 30° C | 24% | 1016.6 hPa | 0 mm | - | 909 W/m² | - |
| 1788463645 | 30.56° C | 23% | 1016.8 hPa | 0 mm | - | 912 W/m² | - |
* Rain latest hour (hover to see other rain measurements)
** Current wind speed in m/s (hover to see current wind gust speed)